User: anonymous   Login
Location: Caltech
(34.1382°N, 118.1253°W)
Time: 18:43:35
(UTC-07:00)
Language:

Spot 4 Rocket - Orbit

View from above orbital plane
View from above orbital plane
View from above satellite
View from above satellite

Ground track
Ground track

The orbit data is extracted from the following two-line orbital elements,

1 25261U 98017B   18112.45582327 +.00000097 +00000-0 +50783-4 0  9993
2 25261 098.5863 061.5363 0002123 253.7087 106.3864 14.33661177049078
Epoch (UTC): 22 April 2018 10:56:23
Eccentricity: 0.0002123
inclination: 98.5863°
perigee height: 778 km
apogee height: 781 km
right ascension of ascending node: 61.5363°
argument of perigee: 253.7087°
revolutions per day: 14.33661177
mean anomaly at epoch: 106.3864°
orbit number at epoch: 4907

The dashed part of the orbit path shows where the satellite is in the earth's shadow,  

DLR